Location: *
(60.1759°S, 155.0663°W)
Time: 08:35:36
(UTC+00:00)

DELTA 2 DEB (DPAF) - Pass Details

Date: 17 September 2019
Orbit: 643 x 646 km, 98.3° (Epoch: 19 October)

Event Time Altitude Azimuth Distance (km) Brightness Sun altitude
Rises 12:45:26 0° 164° (SSE) 3,011 8.6 -25.3°
Reaches altitude 10° 12:47:41 10° 166° (SSE) 2,093 7.6 -25.1°
Enters shadow 12:51:58 63° 227° (SW) 741 4.3 -24.7°
